This demonstration page uses our WeatherBlox Daily Observations layout. Learn more.

Left ArrowRight Arrow

39.01783, -85.05884

Hourly Observations for December 14, 2020

Temp ( °F °C ) Dew Point ( °F °C ) Humidity (%) Winds ( mph kmh ) Pressure ( in mb ) Visibility ( mi km ) Precip ( " mm )
12:52 am 00:52 Cloudy 39 3.9 34 1.1 82 82 SSE 8 13 30.03 1017 10 16 0.00 0.00
1:52 am 01:52 Cloudy 39 3.9 35 1.7 86 86 N N/A 30.00 1016 10 16 N/A
2:02 am 02:02 Cloudy 39 3.9 35 1.7 86 86 N N/A 30.01 1016 10 16 N/A
2:52 am 02:52 Cloudy 39 3.9 35 1.7 86 86 NNW 6 9 29.98 1015 10 16 N/A
3:52 am 03:52 Cloudy 39 3.9 34 1.1 82 82 NW 5 7 30.00 1016 10 16 N/A
4:52 am 04:52 Cloudy 39 3.9 33 0.6 79 79 NNW 9 15 29.99 1016 10 16 N/A
5:52 am 05:52 Cloudy 39 3.9 33 0.6 79 79 NNW 9 15 30.02 1017 10 16 N/A
6:52 am 06:52 Cloudy 38 3.3 32 undefined 79 79 NNW 13 20 30.04 1017 10 16 N/A
7:52 am 07:52 Cloudy 38 3.3 31 -0.6 76 76 NNW 12 19 30.05 1018 10 16 N/A
8:52 am 08:52 Cloudy 38 3.3 29 -1.7 70 70 NW 14 22 30.09 1019 10 16 N/A
9:52 am 09:52 Cloudy 36 2.2 28 -2.2 73 73 WNW 15 24 30.13 1020 10 16 N/A
10:52 am 10:52 Cloudy 35 1.7 26 -3.3 70 70 NW 13 20 30.17 1022 10 16 N/A
11:52 am 11:52 Cloudy 33 0.6 24 -4.4 70 70 NW 14 22 30.19 1022 10 16 N/A
12:52 pm 12:52 Cloudy 31 -0.6 22 -5.6 69 69 NNW 15 24 30.19 1022 10 16 N/A
1:52 pm 13:52 Cloudy 30 -1.1 22 -5.6 72 72 NW 14 22 30.20 1023 10 16 N/A
2:52 pm 14:52 Cloudy 31 -0.6 21 -6.1 67 67 NW 12 19 30.21 1023 10 16 N/A
3:52 pm 15:52 Cloudy 31 -0.6 20 -6.7 64 64 NNW 13 20 30.23 1024 10 16 N/A
4:52 pm 16:52 Cloudy 31 -0.6 20 -6.7 64 64 NNW 10 17 30.26 1025 10 16 N/A
5:52 pm 17:52 Cloudy 30 -1.1 18 -7.8 61 61 NW 10 17 30.28 1025 10 16 N/A
6:18 pm 18:18 Cloudy 30 -1.1 19 -7.2 64 64 NW 5 7 30.32 1027 10 16 N/A
6:52 pm 18:52 Cloudy 30 -1.1 19 -7.2 64 64 WNW 6 9 30.29 1026 10 16 N/A
7:52 pm 19:52 Cloudy 30 -1.1 20 -6.7 66 66 WSW 5 7 30.32 1027 10 16 N/A
8:52 pm 20:52 Cloudy 29 -1.7 21 -6.1 72 72 WNW 3 6 30.33 1027 10 16 N/A
9:52 pm 21:52 Mostly Clear 28 -2.2 20 -6.7 72 72 N N/A 30.32 1027 10 16 N/A
10:52 pm 22:52 Mostly Clear 27 -2.8 19 -7.2 72 72 W 3 6 30.33 1027 10 16 N/A
11:52 pm 23:52 Mostly Clear 24 -4.4 18 -7.8 77 77 N N/A 30.33 1027 10 16 N/A

Powered by AerisWeather